Location: Wald
(31.7579°N, 86.6655°W)
Time: 20:42:48
(UTC+00:00)

SL-19 R/B - Pass Details

Date: 14 July 2020
Orbit: 358 x 810 km, 99.4° (Epoch: 12 August)

Event Time Altitude Azimuth Distance (km) Brightness Sun altitude
Rises 09:03:20 0° 14° (NNE) 2,272 8.4 -19.8°
Reaches altitude 10° 09:05:12 10° 14° (NNE) 1,453 7.3 -19.5°
Maximum altitude 09:08:16 88° 103° (ESE) 435 3.7 -19.0°
Enters shadow 09:08:45 62° 190° (S) 492 3.8 -19.0°
